Weather History for Swansboro, NC

Change the Weather History Date:

Tuesday, April 30, 2013

  Actual Average (KNKT) Record (KNKT)
Temperature  
Mean Temperature 68 °F -  
Max Temperature 73 °F 73 °F 86 °F (2007)
Min Temperature 62 °F 52 °F 41 °F (1997)
Cooling Degree Days 2    
Growing Degree Days 18 (Base 50)    
Moisture  
Dew Point 61 °F    
Average Humidity 85    
Maximum Humidity 100    
Minimum Humidity 66    
Precipitation  
Precipitation 0.00 in - - ()
Sea Level Pressure  
Sea Level Pressure 30.06 in    
Wind  
Wind Speed 3 mph (ENE)    
Max Wind Speed 12 mph    
Max Gust Speed -    
Visibility 8 miles    
Events      
Averages and records for this station are not official NWS values.
T = Trace of Precipitation, MM = Missing Value Source: NWS Daily Summary

Daily Weather History Graph

Daily Weather History Graph

Search for Another Location

Airport:

Trip Planner

Search our weather history database for the weather conditions in past years. The results will help you decide how hot, cold, wet, or windy it might be!

Date:

Astronomy

Apr. 30, 2013 Rise Set
Actual Time 6:18 AM EDT 7:52 PM EDT
Civil Twilight 5:51 AM EDT 8:19 PM EDT
Nautical Twilight 5:19 AM EDT 8:51 PM EDT
Astronomical Twilight 4:45 AM EDT 9:25 PM EDT
Moon 12:10 AM EDT (4/30) 10:47 AM EDT (4/30)
Length of Visible Light 14h 27m
Length of Day
13h 33m
Waning Gibbous, 70% of the Moon is Illuminated
Apr 30
Waning Gibbous
May 2
Last Quarter
May 9
New
May 18
First Quarter
May 25
Full

Hourly Weather History & Observations

Time (EDT) Temp. Dew Point Humidity Pressure Visibility Wind Dir Wind Speed Gust Speed Precip Events Conditions
12:57 AM 63.0 °F 61.0 °F 93% 30.04 in 8.0 mi Calm Calm - N/A   Overcast
1:57 AM 63.0 °F 61.0 °F 93% 30.02 in 8.0 mi Calm Calm - N/A   Overcast
2:24 AM 62.6 °F 60.8 °F 94% 30.00 in 7.0 mi Calm Calm - N/A   Scattered Clouds
2:42 AM 62.6 °F 60.8 °F 94% 30.00 in 7.0 mi Calm Calm - N/A   Scattered Clouds
3:57 AM 63.0 °F 62.1 °F 97% 30.02 in 5.0 mi Calm Calm - N/A   Overcast
4:48 AM 64.4 °F 60.8 °F 88% 30.01 in 3.0 mi NNE 3.5 mph - N/A   Overcast
4:57 AM 63.0 °F 61.0 °F 93% 30.03 in 2.5 mi Calm Calm - N/A   Overcast
5:16 AM 62.6 °F 60.8 °F 94% 30.02 in 1.5 mi North 4.6 mph - N/A   Overcast
5:57 AM 63.0 °F 61.0 °F 93% 30.04 in 1.5 mi North 5.8 mph - N/A   Overcast
6:31 AM 62.6 °F 60.8 °F 94% 30.05 in 3.0 mi NNW 3.5 mph - N/A   Overcast
6:40 AM 62.6 °F 60.8 °F 94% 30.05 in 2.5 mi NW 3.5 mph - N/A   Overcast
6:47 AM 62.6 °F 60.8 °F 94% 30.05 in 5.0 mi Calm Calm - N/A   Overcast
6:57 AM 63.0 °F 61.0 °F 93% 30.07 in 6.0 mi Calm Calm - N/A   Overcast
7:05 AM 62.6 °F 62.6 °F 100% 30.06 in 7.0 mi Calm Calm - N/A   Overcast
7:42 AM 62.6 °F 62.6 °F 100% 30.06 in 7.0 mi Variable 4.6 mph - N/A   Overcast
7:57 AM 63.0 °F 62.1 °F 97% 30.08 in 7.0 mi Calm Calm - N/A   Overcast
8:57 AM 64.9 °F 62.1 °F 90% 30.09 in 8.0 mi NE 4.6 mph - N/A   Overcast
9:49 AM 69.8 °F 62.6 °F 78% 30.07 in 10.0 mi ENE 10.4 mph - N/A   Mostly Cloudy
9:57 AM 70.0 °F 62.1 °F 76% 30.08 in 10.0 mi ENE 10.4 mph - N/A   Mostly Cloudy
10:46 AM 71.6 °F 60.8 °F 69% 30.08 in 10.0 mi NE 11.5 mph - N/A   Scattered Clouds
10:57 AM 71.1 °F 61.0 °F 70% 30.09 in 10.0 mi NE 8.1 mph - N/A   Mostly Cloudy
11:57 AM 71.1 °F 62.1 °F 73% 30.09 in 10.0 mi ESE 9.2 mph - N/A   Mostly Cloudy
12:45 PM 69.8 °F 62.6 °F 78% 30.07 in 10.0 mi SE 8.1 mph - N/A   Mostly Cloudy
12:57 PM 70.0 °F 62.1 °F 76% 30.08 in 10.0 mi SE 9.2 mph - N/A   Mostly Cloudy
1:57 PM 73.0 °F 61.0 °F 66% 30.06 in 10.0 mi ESE 8.1 mph - N/A   Mostly Cloudy
2:57 PM 70.0 °F 60.1 °F 71% 30.06 in 10.0 mi SE 11.5 mph - N/A   Scattered Clouds
3:57 PM 69.1 °F 61.0 °F 75% 30.06 in 10.0 mi ESE 8.1 mph - N/A   Mostly Cloudy
4:57 PM 69.1 °F 60.1 °F 73% 30.06 in 10.0 mi East 8.1 mph - N/A   Overcast
5:57 PM 69.1 °F 61.0 °F 75% 30.06 in 10.0 mi East 6.9 mph - N/A   Scattered Clouds
6:57 PM 66.9 °F 60.1 °F 79% 30.08 in 10.0 mi East 3.5 mph - N/A   Scattered Clouds
7:57 PM 64.9 °F 60.1 °F 84% 30.09 in 10.0 mi Calm Calm - N/A   Partly Cloudy
8:57 PM 66.9 °F 59.0 °F 76% 30.11 in 10.0 mi NE 5.8 mph - N/A   Partly Cloudy
9:57 PM 66.0 °F 60.1 °F 81% 30.13 in 10.0 mi NNE 5.8 mph - N/A   Mostly Cloudy
10:57 PM 64.0 °F 57.9 °F 80% 30.14 in 10.0 mi NNE 5.8 mph - N/A   Clear
11:57 PM 63.0 °F 55.9 °F 78% 30.14 in 10.0 mi North 4.6 mph - N/A   Clear